Home > Time Zones > World Clock > Weather > Mali > Bamako > Past weeks

Flag for Mali Weather past 2 weeks in Bamako, Mali

Now
75 °F

Broken clouds.


Feels Like: 75 °F
Forecast: 72 / 85 °F
Wind: 5 mph from Southwest

Location: Bamako / Senou

Current Time: Sep 19, 2014 at 10:43:44 AM

Latest Report: Sep 19, 2014 at 10:00 AM


Visibility: N/A

Pressure: 30.01 "Hg

Humidity: 89%

Dew point: 72 °F

Location of BamakoLocation

Historic Weather in Bamako — Graph

°F

Bamako temperature yesterday

Maximum temperature yesterday: 93 °F (at 3:30 PM)
Minimum temperature yesterday: 73 °F (at 4:30 AM)
Average temperature yesterday: 81 °F

Past Weeks' High & Low Weather Summary

 TemperatureHumidityPressure
High93 °F (Sep 5, 2:30 PM)100% (Sep 5, 2:00 AM)30.09 "Hg (Sep 5, 2:00 AM)
Low68 °F (Sep 6, 6:30 PM)44% (Sep 5, 2:30 PM)29.83 "Hg (Sep 18, 5:00 PM)
Average78 °F86%29.96 "Hg
* Reported Sep 4 9:00 AM — Sep 19 9:30 AM, Bamako, Weather by CustomWeather, © 2014

Note: Actual official high and low records may vary slightly from our data, if they occured in-between our weather recording intervals... More about our weather records

Advertising

Bamako weather history for previous 24 hours

 ConditionsComfort  
Time TempWeatherWind HumidityBarometerVisibility
9:30 AM
Sep 19
75 °FBroken clouds.6 mph89%30.01 "HgN/A
9:00 AM75 °FBroken clouds.6 mph94%30.01 "HgN/A
8:30 AM73 °FBroken clouds.7 mph94%30.01 "HgN/A
8:00 AM70 °FLight rain. Broken clouds.9 mph100%29.98 "HgN/A
7:30 AM70 °FLight rain. Partly sunny.12 mph100%29.98 "HgN/A
7:00 AM70 °FLight rain. Partly sunny.8 mph100%29.95 "HgN/A
6:30 AM68 °FLight rain. Partly sunny.9 mph100%29.95 "HgN/A
6:00 AM68 °FPassing clouds.9 mph100%29.95 "Hg5 mi
5:30 AM68 °FThunderstorms. Passing clouds.8 mph100%29.95 "Hg5 mi
5:00 AM70 °FThunderstorms. Partly cloudy.6 mph100%29.95 "Hg5 mi
4:30 AM70 °FThunderstorms. Partly cloudy.7 mph100%29.95 "Hg5 mi
4:00 AM70 °FThunderstorms. Partly cloudy.2 mph100%29.95 "Hg5 mi
3:30 AM70 °FThunderstorms. Partly cloudy.8 mph100%29.98 "Hg5 mi
3:00 AM70 °FThunderstorms. Partly cloudy.6 mph100%29.95 "Hg5 mi
2:30 AM68 °FThunderstorms. Partly cloudy.5 mph100%29.92 "Hg4 mi
2:00 AM68 °FThunderstorms. Partly cloudy.6 mph100%29.92 "Hg2 mi
1:30 AM70 °FStrong thunderstorms. Partly cloudy.20 mph100%29.98 "Hg1 mi
1:00 AM73 °FThunderstorms. Partly cloudy.28 mph100%29.98 "Hg2 mi
12:30 AM77 °FThunderstorms. Passing clouds.No wind100%29.95 "HgN/A
12:00 AM79 °FThunderstorms. Passing clouds.2 mph89%29.95 "HgN/A
11:30 PM
Sep 18
77 °FThunderstorms. Passing clouds.1 mph94%29.95 "HgN/A
11:00 PM79 °FThunderstorms. Passing clouds.No wind89%29.95 "HgN/A
10:30 PM77 °FThunderstorms. Passing clouds.2 mph89%29.95 "HgN/A
10:00 PM79 °FThunderstorms. Passing clouds.2 mph89%29.95 "HgN/A
9:30 PM81 °FThunderstorms. Passing clouds.No wind84%29.95 "HgN/A
9:00 PM81 °FThunderstorms. Passing clouds.1 mph79%29.92 "HgN/A
8:30 PM81 °FThunderstorms. Passing clouds.3 mph89%29.92 "HgN/A
8:00 PM82 °FThunderstorms. Passing clouds.No wind84%29.89 "HgN/A
7:00 PM84 °FPassing clouds.No wind79%29.86 "HgN/A
6:30 PM86 °FPassing clouds.3 mph62%29.86 "HgN/A
6:00 PM88 °FScattered clouds.5 mph59%29.86 "HgN/A
5:30 PM90 °FScattered clouds.5 mph52%29.83 "HgN/A
5:00 PM91 °FScattered clouds.5 mph49%29.83 "HgN/A
4:30 PM91 °FScattered clouds.6 mph49%29.86 "HgN/A
4:00 PM91 °FScattered clouds.7 mph46%29.86 "HgN/A
3:30 PM93 °FScattered clouds.5 mph44%29.89 "HgN/A
3:00 PM91 °FScattered clouds.5 mph49%29.92 "HgN/A
2:30 PM91 °FPassing clouds.3 mph49%29.92 "HgN/A
2:00 PM91 °FPassing clouds.7 mph49%29.92 "HgN/A
1:30 PM90 °FPassing clouds.3 mph52%29.92 "HgN/A
1:00 PM90 °FPassing clouds.5 mph55%29.92 "HgN/A
12:30 PM88 °FPassing clouds.3 mph59%29.95 "HgN/A
12:00 PM88 °FPassing clouds.6 mph59%29.98 "HgN/A
11:00 AM86 °FPassing clouds.5 mph66%29.98 "HgN/A
10:30 AM84 °FPassing clouds.7 mph66%29.98 "HgN/A
10:00 AM82 °FPassing clouds.8 mph74%29.98 "HgN/A
Weather by CustomWeather, © 2014

See weather overviewHow to use our weather pages